Location: Leedale
(52.5833°N, 114.4833°W)
Time: 15:44:59
(UTC+00:00)

Envisat - Pass Details

Date: 16 August 2024
Orbit: 762 x 764 km, 98.3° (Epoch: 09 September)

Event Time Altitude Azimuth Distance (km) Brightness Sun altitude
Rises 11:19:56 0° 13° (NNE) 3,241 7.1 -9.1°
Reaches altitude 10° 11:22:15 10° 12° (NNE) 2,311 6.3 -8.8°
Maximum altitude 11:27:19 73° 289° (WNW) 804 3.0 -8.2°
Drops below altitude 10° 11:32:21 10° 205° (SSW) 2,293 4.9 -7.6°
Enters shadow 11:33:36 - 204° (SSW) 2,793 5.4 -7.4°
